Regional Weather Roundup
Issued by NWS Grand Forks, ND

Home | Current Version | Previous Version | Graphics & Text | Print | Product List | Glossary On
Versions: 1 2 3 4 5 6 7 8 9 10 11 12 13 14 15 16 17 18 19 20 21 22 23 24 25 26 27 28 29 30 31 32 33 34 35 36 37 38 39 40 41 42 43 44 45 46 47 48 49 50
000
ASUS43 KFGF 240110
RWRFGF
PRAIRIE TO PINES  WEATHER ROUNDUP
NATIONAL WEATHER SERVICE EASTERN NORTH DAKOTA/GRAND FORKS ND
800 PM CDT WED APR 23 2014

 **SATELLITE DATA USED TO AUGMENT SKY COVER AT AUTOMATED STATIONS**
 *****  WEATHER ACROSS EASTERN NORTH DAKOTA  *****

CITY           SKY/WX    TMP DP  RH WIND       PRES   REMARKS
GRAND FORKS    RAIN      41  38  89 SE24      29.83F FOG
GRAND FRKS AFB LGT RAIN  41  39  93 SE20G32   29.82F FOG
GRAND FRKS NWS   N/A     39 N/A N/A SE26        N/A
DEVILS LAKE    CLOUDY    37  34  87 SE23G31   29.72F
FARGO          LGT RAIN  41  37  86 SE22      29.79F
WAHPETON ARPT  CLOUDY    41  34  75 SE22G30   29.79S
$$

 ***** WEATHER ACROSS CENTRAL AND WESTERN NORTH DAKOTA  *****

CITY           SKY/WX    TMP DP  RH WIND       PRES   REMARKS
BISMARCK       CLOUDY    51  40  65 NW12      29.66R
MINOT          CLOUDY    46  43  89 S6        29.61R
JAMESTOWN      CLOUDY    41  38  89 SE21G33   29.70R
MINOT AFB      CLOUDY    44  44  99 SE10      29.60S
GARRISON         N/A     46  42  86 NW13      29.62R
WILLISTON      CLOUDY    55  40  56 CALM      29.58R
DICKINSON      MOCLDY    55  26  32 W20       29.62R
HETTINGER      PTCLDY    52  31  44 W15G22    29.68R
$$

 *****  OTHER AIRPORT OBSERVATIONS IN OUR AREA  *****

CITY           SKY/WX    TMP DP  RH WIND       PRES   REMARKS
WALHALLA       FAIR      41  41 100 SE21G29   29.84S
GRAFTON AIRPOR LGT RAIN  41  41 100 SE23G31   29.83F
VALLEY CITY AR CLOUDY    39  39 100 SE16G24   29.74R
CANDO          MOCLDY    39  37  93 SE23G35   29.72F FOG
CAVALIER APRT  CLOUDY    41  39  93 SE14G26   29.85S
GWINNER        CLOUDY    41  41 100 SE24G31   29.73R
ROLLA          MIX PCPN  37  37 100 SE24G33   29.71F
 ***** THE ABOVE OBSERVATIONS ARE NON NWS ARE NOT QUALITY
       CONTROLLED AND MAY MIS-REPORT RAIN FOR SNOW...
$$

  *****  WEATHER ACROSS NORTHERN MINNESOTA  *****

CITY           SKY/WX    TMP DP  RH WIND       PRES   REMARKS
FLAG ISLAND    CLOUDY    48  23  37 E12G17    29.89S
WARROAD        CLOUDY    48  30  49 S6        29.91S
ROSEAU         CLOUDY    50  28  43 S16       29.91R
HALLOCK        LGT RAIN  43  41  93 SE18G25   29.88F
THF RVR FALLS  CLOUDY    41  36  81 SE16      29.91F
BAUDETTE       CLOUDY    51  25  36 S8        29.91S
WASKISH        LGT RAIN  45  36  70 SE14G23   29.94R
CROOKSTON      MIX PCPN  39  39 100 SE21      29.87F
$$
  *****  WEATHER ACROSS CENTRAL AND WEST MINNESOTA  *****

CITY           SKY/WX    TMP DP  RH WIND       PRES   REMARKS
FOSSTON        LGT RAIN  37  36  93 SE14G21   29.90R
BEMIDJI        RAIN      35  33  94 SE13      29.93F
PARK RAPIDS    LGT RAIN  34  33  96 E8        29.90F FOG
ELBOW LAKE     CLOUDY    40  36  83 SE20G31   29.81S
WADENA         CLOUDY    36  36 100 SE24      29.86F
DETROIT LAKES  DRIZZLE   36  36 100 SE16G24   29.86S
MOORHEAD       DRIZZLE   41  41 100 SE15      29.81S
FERGUS FALLS   CLOUDY    41  36  81 SE22G30   29.79R
MORRIS MN      CLOUDY    43  36  75 SE23G31   29.79F
STAPLES        DRIZZLE   36  36 100 E8        29.91F
$$
  *****  WEATHER ELSEWHERE ACROSS MINNESOTA  *****

CITY           SKY/WX    TMP DP  RH WIND       PRES   REMARKS
DULUTH         CLOUDY    41  23  48 E14       29.99S
INTRNTL FALLS  CLOUDY    50  21  32 SE8       29.94S
ELY            CLOUDY    45  18  33 E8        30.00F
CLOQUET        CLOUDY    41  25  52 E7        29.98S
WHEATON        CLOUDY    45  39  81 E26G32    29.79S
BRAINERD       LGT RAIN  42  35  76 VRB5      29.95F
HIBBING        CLOUDY    47  24  40 SE12      29.97R
ALEXANDRIA     CLOUDY    40  36  86 E20G26    29.85F
SAINT CLOUD    CLOUDY    41  37  86 E8        29.91F
MINNEAPOLIS    RAIN      42  39  89 E17G25    29.93F
$$

  *****  WEATHER ACROSS SOUTH DAKOTA  *****

CITY           SKY/WX    TMP DP  RH WIND       PRES   REMARKS
SIOUX FALLS    MOCLDY    54  40  59 SE18      29.66R
BROOKINGS      NOT AVBL
WATERTOWN      CLOUDY    47  38  71 SE21G32   29.67S
HURON          MOCLDY    63  42  46 SE16G28   29.56R
SISSETON         N/A     42  37  82 SE22G28   29.74R
ABERDEEN       MOCLDY    48  41  76 E17G23    29.65R
MITCHELL       CLOUDY    63  44  50 SE22G31   29.57R
PIERRE         CLOUDY    57  38  48 NW22G32   29.61R
MOBRIDGE       CLOUDY    56  40  55 NW17      29.62R
RAPID CITY     MOCLDY    54  34  46 N24G31    29.69R
$$

  *****  SOME WEATHER IN NEARBY STATES *****

CITY           SKY/WX    TMP DP  RH WIND       PRES   REMARKS
GLASGOW MT     MOSUNNY   58  20  22 W21G37    29.56R
GREAT FALLS MT MOSUNNY   43  25  49 SW24G36   29.72R
CHEYENNE WY    CLOUDY    50  15  24 NW18G30   29.76R
SCOTTSBLUFF NE CLOUDY    59  11  15 NW18G28   29.72R
OMAHA NE       CLOUDY    56  45  66 SE17      29.63S
DES MOINES IA  LGT RAIN  50  40  68 SE20G32   29.81F
DAVENPORT IA   CLOUDY    48  39  71 SE12      29.99F
CHICAGO IL     CLOUDY    42  18  37 NE10      30.12R
EAU CLAIRE WI  LGT RAIN  43  38  82 SE7       29.99S
LA CROSSE WI   LGT RAIN  45  36  70 SE8       29.99R
$$

  *****  SOME NATIONAL WEATHER *****

CITY           SKY/WX    TMP DP  RH WIND       PRES   REMARKS
LA GUARDIA NY  MOCLDY    47  29  49 NW26G39   29.77R
RALEIGH NC     PTCLDY    62  29  28 CALM      29.92R
ATLANTA GA     CLEAR     67  34  29 NW8       29.93R
NEW ORLEANS LA PTCLDY    74  64  71 S12       29.90R
OKLAHOMA CITY  CLOUDY    78  54  43 S18       29.70R
ALBUQUERQUE NM CLOUDY    64  23  21 N18G30    29.82R
SALT LAKE CITY MOSUNNY   51  16  24 VRB3      30.05
LOS ANGELES CA MOSUNNY   66  47  50 W13       29.92S
BOISE ID       MOSUNNY   55  27  34 SE3       29.95F
SEATTLE WA     LGT RAIN  50  45  83 E8        29.80F
$$

*** WEATHER ACROSS MANITOBA...SASKATCHEWAN AND ONTARIO ***
                ***ONTARIO***

CITY           SKY/WX    TMP DP  RH WIND       PRES   REMARKS
GERALDTON      PTCLDY    43  25  49 CALM      30.07S
THUNDER BAY    CLOUDY    45  19  36 VRB2      30.07F
SIOUX LOOKOUT  CLOUDY    45  23  42 E2        29.99F
TORONTO        PTCLDY    43  16  33 NW15      30.04R
BIG TROUT LK   MOCLDY    41  19  42 E7        30.08S
PICKLE LAKE    PTCLDY    48  23  37 E6        30.02S
DRYDEN         MOCLDY    48  19  32 E5        29.97F
KENORA         CLOUDY    48  23  37 SE6       29.94F
$$
                *** MANITOBA***

CITY           SKY/WX    TMP DP  RH WIND       PRES   REMARKS
BRANDON        LGT RAIN  41  39  93 SE23G29   29.75F
DAUPHIN        LGT RAIN  43  39  87 SE18G25   29.82R
ISLAND LAKE    PTCLDY    46  36  66 NE8G20    30.04R
PILOT MOUND      N/A     39  36  87 SE26G35     N/A
THE PAS        CLOUDY    46  23  39 E8        29.89S
THOMPSON       PTCLDY    34  25  69 NE16G23   30.15S WCI  23
WINNIPEG       CLOUDY    45  39  81 S17       29.90R
LYNN LAKE      CLEAR     32  23  69 E15G22    30.13R WCI  22
CHURCHILL      FLURRIES  23  18  80 N15       30.38R WCI  10
GILLAM         CLOUDY    27  21  80 NE18      30.26S WCI  13
$$
                ***SASKATCHEWAN***

CITY           SKY/WX    TMP DP  RH WIND       PRES   REMARKS
ESTEVAN        LGT RAIN  45  43  93 W13       29.56R
KINDERSLEY     CLOUDY    45  37  76 W21       29.48R
LLOYDMINSTER   LGT RAIN  39  37  93 SE23G30   29.48S FOG
PRINCE ALBERT  LGT RAIN  43  39  87 E18G28    29.64S
REGINA         LGT RAIN  43  43 100 SW6       29.51S
YORKTON        LGT RAIN  41  39  93 E23G32    29.66F
N. BATTLEFORD  LGT RAIN  41  39  93 E26G33    29.50S
LA RONGE       CLOUDY    45  28  53 NE18G30   29.83R
SASKATOON      LGT RAIN  43  41  93 SE23G30   29.51S FOG
SWIFT CURRENT  LGT RAIN  45  41  87 W20G25    29.50S
$$
NOTE: THESE ARE AUTOMATED STATIONS WITH LIMITED QUALITY CONTROL
      "FAIR" INDICATES FEW OR NO CLOUDS BELOW 12,000 FEET WITH NO
      SIGNIFICANT WEATHER AND/OR OBSTRUCTIONS TO VISIBILITY.
      SKY/WX - SKY CONDITION AND SIGNIFICANT WEATHER.
      TMP - AIR TEMPERATURE.    DP   - DEWPOINT TEMPERATURE.
      RH  - RELATIVE HUMIDITY.  PRES - PRESSURE.
      HX  - HEAT INDEX.         WCI  - WIND CHILL INDEX.
$



USA.gov is the U.S. government's official web portal to all federal, state and local government web resources and services.